Location: Bon Acre
(42.6442°N, 73.5758°W)
Time: 16:58:41
(UTC+00:00)

Spot 4 Rocket - Pass Details

Date: 14 December 2025
Orbit: 769 x 773 km, 98.8° (Epoch: 22 January)

Event Time Altitude Azimuth Distance (km) Brightness Sun altitude
Rises 23:09:57 0° 158° (SSE) 3,230 7.2 -19.2°
Reaches altitude 10° 23:12:15 10° 157° (SSE) 2,308 6.4 -19.6°
Maximum altitude 23:17:19 73° 73° (ENE) 811 3.9 -20.5°
Drops below altitude 10° 23:22:25 10° 350° (N) 2,328 6.5 -21.4°
Sets 23:24:45 0° 349° (NNW) 3,260 7.3 -21.8°
